Location: Cañada de la Miga
(34.7595°N, 106.2317°W)
Time: 00:29:58
(UTC+00:00)

deb Explorer IX - All Passes

Search period start: 07 December 2021 00:00
Search period end: 17 December 2021 00:00
Orbit: 546 x 1085 km, 38.8° (Epoch: 05 December)

Date Brightness Start Highest point End Pass type
(mag) Time Alt. Az. Time Alt. Az. Time Alt. Az.
07 Dec - 13:48:22 10° SSW 13:52:57 23° SE 13:57:04 10° E daylight
07 Dec - 15:34:00 10° WSW 15:39:33 75° SSE 15:44:17 10° ENE daylight
07 Dec - 17:21:33 10° W 17:26:26 53° N 17:30:43 10° ENE daylight
07 Dec - 19:09:00 10° WNW 19:13:27 60° NNE 19:17:31 10° E daylight
07 Dec - 20:55:59 10° W 20:59:58 43° SSW 21:03:51 10° SE daylight
08 Dec - 13:23:07 10° SSW 13:27:53 24° SE 13:32:10 10° E visible
08 Dec - 15:08:46 10° WSW 15:14:31 75° SSE 15:19:24 10° ENE daylight
08 Dec - 16:56:23 10° W 17:01:27 54° N 17:05:51 10° ENE daylight
08 Dec - 18:43:55 10° WNW 18:48:30 61° N 18:52:38 10° E daylight
08 Dec - 20:30:58 10° W 20:35:02 44° SSW 20:38:56 10° SE daylight
09 Dec - 12:57:52 10° SSW 13:02:48 24° SE 13:07:15 10° E visible
09 Dec - 14:43:32 10° WSW 14:49:28 75° SSE 14:54:31 10° ENE daylight
09 Dec - 16:31:11 10° W 16:36:26 56° N 16:40:58 10° ENE daylight
09 Dec - 18:18:47 10° WNW 18:23:32 61° NNE 18:27:44 10° E daylight
09 Dec - 20:05:55 10° W 20:10:06 45° SSW 20:14:01 10° SE daylight
10 Dec - 12:32:35 10° SSW 12:37:41 25° SE 12:42:18 10° E visible
10 Dec - 14:18:16 10° WSW 14:24:23 74° SSE 14:29:36 10° ENE daylight
10 Dec - 16:05:57 10° W 16:11:24 57° N 16:16:04 10° ENE daylight
10 Dec - 17:53:38 10° WNW 17:58:32 61° N 18:02:50 10° E daylight
10 Dec - 19:40:50 10° WNW 19:45:08 46° SSW 19:49:06 10° SE daylight
11 Dec - 12:07:18 10° SSW 12:12:33 25° SE 12:17:20 10° E visible
11 Dec - 13:52:58 10° WSW 13:59:17 74° SSE 14:04:40 10° ENE daylight
11 Dec - 15:40:42 10° W 15:46:21 58° N 15:51:11 10° ENE daylight
11 Dec - 17:28:26 10° WNW 17:33:31 62° N 17:37:56 10° E daylight
11 Dec - 19:15:43 10° WNW 19:20:10 48° SSW 19:24:11 10° SE daylight
12 Dec - 11:42:00 10° SSW 11:47:23 25° SE 11:52:19 10° E visible
12 Dec - 13:27:40 10° WSW 13:34:09 74° SSE 13:39:42 10° ENE visible
12 Dec - 15:15:24 10° W 15:21:16 59° N 15:26:15 10° ENE daylight
12 Dec - 17:03:12 10° WNW 17:08:29 62° N 17:13:01 10° E daylight
12 Dec - 18:50:33 10° WNW 18:55:10 49° SSW 18:59:16 10° SE daylight
13 Dec - 11:16:42 10° SSW 11:22:12 26° SE 11:27:16 10° E visible
13 Dec - 13:02:20 10° WSW 13:08:59 74° SSE 13:14:43 10° ENE visible
13 Dec - 14:50:05 10° W 14:56:09 60° N 15:01:18 10° ENE daylight
13 Dec - 16:37:57 10° WNW 16:43:25 63° N 16:48:05 10° E daylight
13 Dec - 18:25:22 10° WNW 18:30:09 51° SSW 18:34:21 10° SE daylight
14 Dec - 10:51:24 10° SSW 10:57:00 26° SE 11:02:12 10° E visible
14 Dec - 12:37:00 10° WSW 12:43:47 73° SSE 12:49:42 10° ENE visible
14 Dec - 14:24:45 10° W 14:31:00 61° N 14:36:20 10° ENE daylight
14 Dec - 16:12:40 10° WNW 16:18:20 63° N 16:23:08 10° E daylight
14 Dec - 18:00:08 10° WNW 18:05:06 52° SSW 18:09:25 10° SE daylight
14 Dec - 19:50:41 10° SW 19:50:55 10° SW 19:51:09 10° SW daylight
15 Dec - 10:26:06 10° SSW 10:31:46 26° SE 10:37:05 10° E visible
15 Dec - 12:11:40 10° WSW 12:18:34 73° SSE 12:24:39 10° ENE visible
15 Dec - 13:59:23 10° W 14:05:49 62° N 14:11:20 10° ENE daylight
15 Dec - 15:47:21 10° WNW 15:53:13 64° N 15:58:11 10° E daylight
15 Dec - 17:34:52 10° WNW 17:40:02 54° SSW 17:44:29 10° SE daylight
15 Dec - 19:24:45 10° WSW 19:25:52 11° SW 19:26:58 10° SSW daylight
16 Dec - 10:00:48 10° SSW 10:06:31 26° SE 10:11:56 10° E visible
16 Dec - 11:46:18 10° WSW 11:53:19 73° SSE 11:59:34 10° ENE visible
16 Dec - 13:34:02 10° W 13:40:37 63° N 13:46:19 10° ENE visible
16 Dec - 15:22:01 10° WNW 15:28:04 64° N 15:33:12 10° E daylight
16 Dec - 17:09:35 10° WNW 17:14:57 56° SSW 17:19:32 10° SE daylight
16 Dec - 18:59:10 10° WSW 19:00:48 12° SW 19:02:22 10° SSW daylight
